Location: Wharf Road Observatory
(44.7802°N, 65.6070°W)
Time: 11:09:02
(UTC-04:00)

ISS - Visible Passes

Search period start: 24 February 2024 00:00
Search period end: 05 March 2024 00:00
Orbit: 415 x 422 km, 51.6° (Epoch: 24 February)

Date Brightness Start Highest point End Pass type
(mag) Time Alt. Az. Time Alt. Az. Time Alt. Az.
24 Feb -2.1 04:57:49 30° NNE 04:57:49 30° NNE 04:59:52 10° NE visible
24 Feb -2.1 06:31:04 10° WNW 06:33:57 25° N 06:36:49 10° NE visible
25 Feb -0.3 04:12:13 12° NE 04:12:13 12° NE 04:12:29 10° NE visible
25 Feb -2.2 05:45:11 21° NW 05:46:22 26° N 05:49:19 10° NE visible
26 Feb -2.0 04:59:57 26° NNE 04:59:57 26° NNE 05:02:15 10° NE visible
26 Feb -2.1 06:33:44 10° NW 06:36:42 27° N 06:39:42 10° ENE visible
27 Feb -0.5 04:15:04 13° NE 04:15:04 13° NE 04:15:37 10° NE visible
27 Feb -2.0 05:48:06 16° NW 05:49:56 25° N 05:52:52 10° ENE visible
28 Feb -2.0 05:03:36 25° N 05:03:36 25° N 05:06:29 10° ENE visible
29 Feb -0.8 04:19:30 16° NE 04:19:30 16° NE 04:20:32 10° NE visible
29 Feb -2.3 05:52:34 14° NW 05:55:08 32° NNE 05:58:18 10° E visible
01 Mar -2.1 05:08:53 26° NNW 05:09:34 28° N 05:12:38 10° ENE visible
02 Mar -1.2 04:25:35 21° NE 04:25:35 21° NE 04:27:23 10° ENE visible
02 Mar -3.1 05:58:43 12° NW 06:01:52 56° NNE 06:05:19 10° ESE visible
03 Mar -2.7 05:15:53 29° NNW 05:17:09 43° NNE 05:20:32 10° E visible
04 Mar -2.0 04:33:29 32° NE 04:33:29 32° NE 04:36:06 10° E visible
04 Mar -3.5 06:06:40 11° WNW 06:10:01 58° SW 06:13:30 10° SE visible
